Temp
11 11 11 12 11 11 11 11 12 11 11 11 11 11 12 11 12 11 11 11 13 12 12 13 15 15 14 13 13 15 16 17 18 18 18 19 19 19 18 18 18 18 18 17 17 17 17
11 11 13 13 12 13 12 12 12 12 12 12 12 12 12 11 11 11 11 12 13 13 14 14 15 15 15 13 15 16 17 17 18 18 17 18 19 18 17 17 18 17 16 17 17 17 17
10 10 12 13 13 13 13 12 12 12 12 11 11 12 12 12 12 13 13 13 14 14 15 15 15 16 13 13 15 16 17 17 17 18 17 17 18 19 17 17 17 16 18 18 17 17 17
11 10 10 11 13 13 13 13 13 13 13 12 12 12 13 13 13 14 14 15 15 15 15 15 15 15 14 15 16 17 17 17 18 18 18 18 18 15 16 16 15 17 16 18 17 16 16
13 12 10 9 10 13 13 13 13 13 13 13 13 13 13 14 14 15 15 16 16 16 16 16 15 15 14 16 16 16 16 17 18 18 18 18 17 14 14 15 14 14 18 19 19 16 16
11 12 13 12 11 11 12 13 14 13 14 14 14 14 14 15 15 15 16 16 16 17 16 16 16 15 15 14 15 16 17 17 17 17 17 15 11 12 11 13 16 17 17 18 18 15 15
9 10 11 10 9 9 12 13 13 14 14 14 15 15 15 16 15 16 16 16 13 12 14 13 13 13 14 15 16 16 16 17 17 14 15 13 10 11 15 15 16 16 17 17 17 14 14
10 9 10 9 9 10 12 13 13 14 14 14 15 15 15 15 15 15 15 11 11 13 13 14 14 14 15 15 16 14 17 17 16 14 15 13 12 14 14 15 16 16 16 16 15 14 14
9 10 11 11 9 9 12 13 13 14 14 14 15 15 15 14 14 15 14 11 12 13 13 14 14 14 14 15 13 13 14 15 14 13 12 13 14 14 15 14 15 14 15 14 14 12 13
10 11 11 12 11 11 12 12 13 14 14 14 14 15 15 15 15 14 13 12 13 13 9 13 14 15 15 15 14 15 15 15 14 13 12 12 14 15 15 14 14 16 13 13 13 11 11
12 12 11 12 12 12 12 13 13 14 14 14 15 15 15 16 14 13 12 12 13 13 10 14 14 16 15 15 15 15 15 14 14 14 14 14 14 14 14 14 14 14 13 13 12 9 9
12 12 12 12 12 12 12 13 14 14 14 14 14 15 15 15 14 13 13 12 12 10 11 12 14 15 15 14 15 15 15 14 14 13 12 12 13 13 13 13 13 12 11 9 8 7 8
12 12 12 12 12 12 12 13 13 14 14 14 14 14 14 14 12 13 13 11 9 10 13 14 14 15 14 14 15 15 14 12 13 11 8 12 12 13 13 13 13 11 8 8 9 8 10
11 11 12 12 12 12 13 13 13 14 15 15 14 14 13 13 12 12 13 10 11 13 13 14 14 15 14 14 15 15 14 13 12 11 7 10 11 13 13 13 13 12 10 8 13 11 9
11 11 12 12 12 12 13 13 14 14 15 15 15 14 14 13 13 12 10 8 10 12 14 14 15 14 14 15 15 14 13 13 13 13 13 13 14 12 12 12 13 12 10 11 8 9 8
10 10 11 12 12 12 13 13 14 14 15 15 14 13 13 13 13 13 8 10 11 12 13 14 15 15 15 15 15 15 14 13 13 13 12 13 12 12 12 12 12 12 11 11 7 13 13
9 10 11 11 11 12 13 13 13 15 15 15 15 11 13 13 13 8 7 9 12 13 13 14 14 15 14 15 14 14 14 13 13 13 13 12 11 12 11 10 10 10 10 10 9 9 12
9 9 10 11 12 12 13 13 13 14 15 15 12 11 15 14 9 5 8 11 12 13 13 13 13 14 14 14 14 13 13 13 13 13 13 12 9 8 12 11 11 11 11 10 9 12 8
9 9 9 10 11 12 12 13 14 14 14 14 9 9 15 14 9 7 11 12 11 12 12 13 13 13 13 14 14 13 13 13 13 13 12 11 10 7 11 11 11 11 10 10 9 8 9
8 9 9 8 10 11 12 13 14 14 15 13 8 10 9 6 6 10 12 12 12 12 12 12 13 13 13 13 12 13 12 12 12 12 12 11 8 10 10 13 11 11 10 9 10 7 9
9 9 9 9 9 10 11 12 13 14 15 14 6 9 8 10 10 10 11 13 12 13 12 12 13 12 13 13 12 12 12 11 11 12 11 10 10 7 8 9 10 11 11 10 8 10 11
9 9 9 8 9 9 10 10 12 14 15 13 9 9 7 8 9 12 10 12 13 13 13 12 12 13 12 12 11 13 11 11 11 10 10 8 10 10 9 10 9 9 9 10 10 11 9
9 9 9 9 9 9 9 10 11 12 14 10 8 8 8 9 9 11 10 12 13 12 13 13 12 12 12 11 11 12 10 10 11 10 9 9 8 8 10 9 9 11 11 10 9 9 11
9 9 9 9 9 9 9 9 9 10 11 11 8 7 8 10 9 11 11 12 12 12 12 12 12 12 11 10 10 10 9 9 9 9 9 7 8 8 8 9 11 14 13 11 11 11 10
9 9 9 9 9 9 9 9 9 9 10 10 9 8 7 9 8 11 12 12 11 10 10 11 11 9 8 10 10 10 10 11 9 9 7 8 8 9 10 8 10 15 12 12 12 13 11
9 9 9 9 9 9 9 9 9 9 9 10 9 9 7 8 9 10 10 11 10 9 9 11 10 9 9 8 9 11 12 12 11 8 7 7 8 9 7 9 11 14 13 13 13 11 11
9 9 9 10 9 9 9 9 9 9 9 9 9 9 8 7 7 10 9 10 9 9 8 9 10 10 9 8 9 9 10 11 11 10 7 8 7 8 9 8 8 10 10 12 12 12 11
8 8 8 9 10 9 9 9 9 9 9 9 9 9 9 6 6 9 10 9 9 8 9 9 9 8 7 8 8 8 8 9 10 10 8 8 7 7 7 7 7 10 11 12 10 10 10
8 9 9 9 9 9 9 9 8 8 8 8 8 8 8 7 7 9 9 9 9 10 8 7 8 8 8 7 6 6 8 7 9 10 8 9 10 9 9 9 10 10 11 11 8 9 10
Height
816 812 807 802 798 794 790 786 783 780 779 779 776 775 774 770 769 774 775 775 777 787 789 790 789 792 793 792 792 789 789 788 788 788 788 788 792 798 807 808 808 814 817 818 819 818 818
820 816 811 807 803 798 794 791 788 785 784 784 784 781 779 778 777 777 781 782 783 787 788 788 791 791 793 796 790 788 789 788 788 788 789 789 792 796 806 812 812 816 820 821 819 820 820
823 820 815 811 806 802 798 794 793 790 788 787 788 788 785 784 784 783 785 786 787 787 788 789 790 791 793 796 790 789 789 788 790 789 790 792 792 796 805 813 813 818 820 821 824 822 822
823 822 819 814 809 805 801 797 795 792 791 790 789 791 791 788 788 788 787 787 788 788 789 789 789 790 796 792 790 790 790 790 791 791 791 794 795 800 808 814 820 823 828 831 826 825 824
825 822 820 817 813 808 804 800 797 794 791 791 792 791 791 792 789 790 789 788 788 789 789 789 789 790 797 793 792 792 791 793 793 793 794 795 798 811 816 826 837 839 837 831 826 828 827
827 824 820 817 814 811 807 803 799 796 794 792 790 789 790 789 789 789 789 789 790 790 790 789 790 795 796 799 795 794 794 795 794 795 799 803 814 825 835 836 849 838 839 833 832 835 832
830 826 823 819 815 812 809 806 803 800 796 794 793 792 791 791 791 791 790 790 794 797 794 801 802 801 799 798 797 796 797 796 797 804 816 818 837 849 835 831 830 833 834 836 834 839 837
833 829 825 821 817 813 809 807 804 802 800 797 795 794 793 792 793 793 793 795 800 801 805 802 801 801 800 800 800 800 798 803 807 821 818 830 843 835 833 830 832 835 837 839 839 839 841
836 832 828 824 819 815 810 807 805 803 802 800 798 796 795 795 794 794 795 799 800 801 805 807 805 805 805 803 810 809 804 808 817 826 832 838 839 834 832 838 838 846 842 845 849 847 843
839 835 831 827 822 817 812 809 805 803 802 801 800 798 796 795 797 796 799 801 801 802 827 821 811 809 807 805 814 810 810 813 821 832 835 841 837 835 837 842 842 841 847 848 850 860 865
841 838 835 831 826 820 815 810 806 804 802 801 799 798 797 796 796 798 802 801 802 803 851 822 816 809 808 812 815 815 813 813 826 831 834 842 840 839 840 844 842 848 849 851 854 870 873
843 840 837 833 829 824 818 812 808 805 804 802 801 798 797 798 798 800 801 802 804 829 852 831 819 816 815 816 816 816 816 816 825 833 837 843 840 841 842 844 846 849 854 866 872 881 895
846 842 839 836 831 826 821 815 809 806 805 804 803 801 799 799 801 801 801 803 832 847 830 829 826 819 821 825 822 821 827 834 838 852 870 846 846 843 843 847 849 855 872 891 885 899 875
848 844 841 837 833 828 823 817 811 806 805 804 804 803 802 801 801 800 800 813 837 829 829 823 823 822 827 827 827 826 831 840 839 844 872 864 864 846 846 846 850 853 864 894 866 876 879
851 847 843 839 835 830 825 819 813 807 805 805 805 805 804 803 801 801 806 844 842 831 824 824 822 827 829 826 826 829 836 841 840 839 844 848 846 847 847 847 850 856 868 862 882 883 885
854 851 847 842 838 832 827 821 814 808 805 804 805 806 806 804 802 801 820 836 833 829 827 824 825 825 829 829 829 831 835 837 838 838 840 845 854 849 849 849 852 852 858 867 888 858 857
857 853 850 845 840 834 829 823 817 811 806 804 804 810 807 804 803 811 844 842 830 827 827 826 828 829 830 831 832 835 838 839 836 839 839 844 853 856 852 857 855 860 861 863 870 873 858
858 855 851 847 842 837 831 825 819 813 807 805 805 819 807 805 821 840 841 831 829 829 827 827 828 828 829 831 833 838 839 837 837 838 841 845 860 871 849 848 849 850 850 858 873 852 874
859 855 852 848 844 839 834 828 822 816 812 808 815 817 808 806 838 845 832 832 833 831 833 831 831 831 831 833 835 837 838 839 838 839 845 846 859 884 856 856 849 850 848 849 859 866 863
859 857 854 851 847 842 837 831 826 820 815 813 817 828 821 821 835 835 834 835 833 832 832 832 833 832 833 835 837 837 839 839 840 840 841 845 862 854 863 837 845 846 845 848 847 872 852
859 857 855 852 849 845 840 834 829 822 818 818 826 836 835 838 835 837 835 833 837 835 835 834 834 835 836 839 839 840 840 842 842 842 845 851 856 864 854 851 845 839 836 844 853 835 832
858 855 854 853 851 848 843 839 834 827 821 822 833 836 839 840 837 833 842 835 833 833 835 836 838 835 837 839 840 836 841 843 841 847 849 855 852 851 850 839 845 844 836 833 830 828 832
858 856 854 852 850 849 846 842 839 833 828 833 838 839 839 841 839 835 836 834 834 835 833 831 833 835 836 837 835 834 836 836 835 842 849 852 855 858 847 848 844 829 814 817 822 821 815
857 855 854 852 850 848 846 845 844 840 837 835 840 841 845 842 842 839 836 831 828 830 835 833 833 834 835 833 833 834 836 837 839 840 841 851 852 858 856 848 842 799 799 805 808 804 807
854 853 852 851 849 848 846 844 845 844 842 840 839 840 846 847 847 840 837 836 835 833 830 827 828 832 834 836 839 837 837 833 835 839 843 843 848 849 846 855 829 792 798 800 801 794 796
851 851 850 849 849 848 846 844 843 843 844 843 842 840 840 848 844 837 837 837 843 842 839 831 832 831 830 834 838 836 834 828 829 843 846 846 845 844 860 848 824 793 796 796 795 806 797
846 847 846 846 846 847 846 846 844 842 843 844 843 843 841 843 838 839 842 839 837 840 843 839 834 835 835 840 837 839 830 822 822 832 847 848 852 844 843 848 832 804 803 798 804 804 798
839 840 842 841 840 843 843 843 844 844 844 843 842 841 842 844 837 833 834 837 838 840 840 837 838 837 843 841 841 837 841 827 824 822 831 829 840 845 849 852 842 801 800 801 803 801 801
833 834 837 836 834 836 837 838 840 841 840 842 843 842 841 839 836 833 831 830 831 833 836 836 835 834 835 841 844 843 835 836 828 825 824 828 814 820 821 811 799 800 797 798 801 801 798
Wind_Speed
22 24 25 25 24 25 25 24 24 23 21 22 21 17 20 21 22 19 20 21 23 13 13 11 8 3 4 4 2 7 6 1 2 3 2 3 3 3 5 4 3 4 2 3 2 3 2
21 21 24 24 25 23 22 20 18 19 20 20 18 17 17 21 20 19 19 20 18 12 10 6 1 3 3 4 4 10 5 3 3 3 3 3 4 3 6 4 4 2 4 3 2 3 2
21 21 19 19 21 22 21 18 16 15 15 17 18 15 16 14 16 17 16 17 12 8 4 5 6 10 6 3 5 10 8 6 3 3 3 3 5 4 3 4 2 5 4 2 5 3 2
21 21 20 20 20 21 20 17 16 14 11 11 12 12 9 9 10 13 12 12 8 4 3 2 3 3 2 5 7 11 8 9 8 8 10 9 10 8 4 3 6 4 5 2 3 5 3
19 20 21 21 20 20 19 18 16 15 13 11 9 9 9 10 13 10 10 10 6 3 3 3 3 4 1 4 5 10 11 5 6 8 9 6 5 4 5 5 4 7 2 1 2 4 3
21 20 20 21 20 19 18 16 15 15 13 11 10 9 11 12 12 12 12 11 17 5 4 5 5 4 5 3 4 5 7 6 7 3 5 8 6 4 5 5 4 4 2 2 3 5 5
22 23 23 23 22 20 18 15 13 12 12 9 8 8 8 8 8 5 5 2 5 6 12 3 2 4 1 4 6 10 9 4 4 8 4 5 7 2 2 2 3 5 3 0 2 3 5
23 24 26 27 25 23 19 15 13 11 11 9 5 2 4 5 5 3 3 5 3 3 6 6 3 4 3 3 5 11 11 5 6 4 3 6 3 1 2 3 4 4 2 2 3 2 3
23 25 27 29 28 25 22 17 13 10 10 11 8 4 3 4 5 10 12 7 4 1 5 5 3 4 4 6 4 8 6 2 5 5 5 6 1 2 2 5 4 3 2 1 2 7 1
25 27 29 31 32 30 25 20 14 10 8 10 8 2 2 4 2 4 5 3 2 1 5 10 7 5 4 2 6 3 5 3 6 4 3 5 2 2 3 4 2 1 2 2 2 4 2
24 26 29 30 32 33 30 23 16 10 8 9 11 5 6 6 4 3 1 2 2 1 5 7 6 4 5 6 2 8 5 6 4 3 3 1 2 4 5 2 2 2 2 2 2 4 4
23 25 27 30 32 34 35 29 19 9 7 7 10 9 3 3 4 2 2 2 2 6 1 5 4 4 4 6 3 3 5 7 4 5 6 2 0 3 2 3 3 3 4 6 4 3 3
21 24 26 29 31 34 35 34 26 10 5 5 7 9 5 3 1 2 2 3 5 6 3 3 2 3 4 5 4 4 4 5 3 5 3 4 2 2 1 2 1 5 6 4 5 3 5
21 23 25 28 31 33 35 36 30 19 5 3 3 7 7 7 3 2 1 5 8 2 2 1 1 2 4 3 3 3 3 3 5 4 3 4 5 1 2 2 2 2 5 5 5 2 4
20 22 24 27 30 32 35 36 35 25 7 3 2 5 6 9 6 3 5 6 5 3 1 3 1 4 3 2 3 4 3 1 0 2 4 3 2 2 3 2 2 2 2 2 5 2 3
20 22 23 25 28 31 33 35 36 27 10 5 2 2 7 10 7 4 5 3 1 2 2 0 2 1 2 1 3 2 1 1 1 1 1 3 1 1 1 2 2 2 4 2 3 1 4
18 20 22 24 27 30 32 34 36 27 11 5 3 3 9 12 4 6 4 2 1 1 1 2 2 2 2 2 3 1 3 1 1 1 2 3 3 2 2 4 6 1 2 2 2 4 4
16 19 21 23 25 28 30 33 36 33 17 4 3 3 13 9 4 2 3 3 1 2 4 3 3 3 1 1 1 2 4 2 1 3 3 1 4 3 6 1 3 3 5 5 4 4 2
14 15 18 21 25 26 28 30 33 33 23 4 3 1 6 5 4 3 1 3 3 4 4 4 2 2 1 3 1 3 3 1 1 3 5 4 1 2 6 4 2 4 5 4 3 2 6
13 14 17 20 22 24 25 29 31 32 23 7 3 3 4 4 1 5 2 3 2 2 2 3 2 3 3 1 3 2 2 1 2 1 5 4 3 5 6 4 3 4 5 6 5 3 4
13 13 14 17 21 24 23 26 29 30 18 6 4 0 2 2 4 3 3 1 2 2 2 1 2 1 1 1 1 2 1 1 1 1 2 3 3 3 6 8 5 5 7 8 9 7 7
16 14 14 15 18 22 23 25 27 30 18 9 3 2 2 1 2 4 4 3 1 1 2 1 1 1 4 4 6 4 5 4 5 1 4 1 2 1 5 3 3 6 12 14 16 13 11
16 16 15 13 13 17 20 21 23 25 20 9 7 4 2 4 2 2 4 2 2 3 2 2 5 1 3 5 4 3 4 2 4 8 7 5 3 2 5 5 7 8 7 8 4 5 9
16 16 15 14 12 12 14 18 18 19 19 8 5 1 3 3 1 2 2 2 6 5 2 3 1 1 2 3 2 1 1 4 5 5 3 6 5 3 4 4 2 6 3 6 8 6 13
16 16 16 15 13 11 11 12 13 13 14 10 6 3 2 2 1 4 4 3 3 3 6 6 5 5 1 5 3 4 2 3 2 1 5 3 4 2 3 3 7 8 2 4 4 5 2
21 18 16 16 14 12 11 9 9 8 9 8 6 4 4 3 3 2 1 1 2 3 5 3 2 1 2 3 3 2 3 3 2 1 5 3 1 3 2 3 5 2 1 0 2 5 4
23 23 19 17 17 15 12 10 8 5 6 6 4 4 2 2 3 1 3 2 3 1 2 4 3 2 3 2 3 4 5 5 5 6 5 3 1 9 6 4 7 7 6 1 2 3 3
18 20 22 20 17 17 16 13 11 9 8 6 4 4 2 2 4 3 2 3 0 2 3 2 3 1 2 1 3 3 3 3 2 3 5 7 7 4 4 4 8 2 0 4 3 1 3
12 15 20 20 19 20 19 17 16 14 11 9 5 7 5 4 4 4 7 7 4 2 3 2 2 3 4 1 1 0 3 1 3 3 0 3 5 4 9 6 2 2 3 1 3 1 3
Wind_Direction
43 44 44 40 39 38 44 46 50 52 53 56 67 75 99 103 111 116 122 110 112 150 146 150 139 226 222 38 81 2 341 3 130 134 112 108 80 114 110 107 75 82 136 65 90 83 82
34 42 43 39 41 39 46 48 52 42 42 57 71 75 86 98 109 114 123 122 127 143 140 123 151 172 240 80 349 19 16 81 87 137 80 66 139 150 91 68 74 97 87 102 54 17 42
32 32 32 35 29 33 34 39 40 42 47 57 60 83 78 86 98 109 125 129 133 117 95 105 90 92 69 175 14 46 54 50 43 110 93 68 118 71 119 96 145 133 75 28 26 9 18
29 28 27 26 25 24 28 31 30 30 33 47 64 84 67 77 92 107 111 115 110 97 123 45 93 87 83 356 49 47 63 68 75 87 90 75 93 101 61 113 29 56 53 56 347 356 358
26 26 25 24 21 19 20 22 27 30 26 38 63 83 82 84 89 94 98 93 76 79 27 43 92 92 9 352 39 33 43 40 61 72 67 70 62 77 36 82 32 11 162 207 314 26 334
25 23 23 21 20 18 18 19 21 28 36 38 41 57 80 74 67 87 89 88 72 78 27 63 62 60 8 340 355 13 39 45 61 35 32 42 47 68 34 63 203 188 149 247 265 345 2
26 25 23 19 15 15 17 21 21 23 29 40 53 81 66 46 48 48 352 0 26 4 35 62 289 102 21 343 49 27 8 21 45 49 58 13 66 78 101 42 115 108 104 240 294 22 338
26 25 25 21 15 14 16 19 22 26 26 30 24 279 333 313 297 318 32 70 75 153 70 27 45 55 48 341 52 356 13 67 55 68 356 28 81 210 299 44 79 59 90 320 290 1 5
30 31 30 26 20 15 15 16 17 25 29 28 35 70 102 50 75 70 86 88 87 82 89 7 9 37 327 32 64 345 21 59 81 57 18 115 135 339 51 43 75 37 68 46 260 323 47
35 35 32 28 26 23 18 14 10 15 28 27 27 30 340 346 94 67 59 58 10 35 79 335 350 2 3 46 49 353 20 82 39 125 89 80 325 74 72 73 55 81 42 73 21 32 280
37 34 31 29 26 25 22 18 15 16 24 26 22 16 26 27 90 60 54 358 349 61 66 310 324 313 357 75 162 355 11 33 76 85 92 249 43 56 68 39 15 137 62 64 72 66 36
37 33 29 26 25 24 23 19 17 20 24 27 27 20 348 18 58 67 358 354 85 45 268 343 317 359 43 18 38 341 43 48 128 76 37 78 319 53 100 67 71 134 76 44 52 68 10
34 30 27 24 23 21 21 21 17 10 13 16 22 24 39 37 77 354 340 80 38 87 262 323 11 22 69 13 37 46 37 25 70 67 1 22 4 358 81 113 55 66 52 339 351 10 221
30 27 25 22 20 19 18 18 17 13 355 4 26 25 44 39 9 358 99 54 69 183 198 221 9 66 85 4 33 47 75 63 36 76 99 127 325 40 10 84 165 79 133 154 235 244 274
28 24 22 20 17 17 15 15 16 15 20 358 338 4 21 16 6 348 73 50 181 217 230 134 78 82 28 39 101 72 63 120 89 57 124 125 294 5 49 35 92 141 187 163 103 0 32
24 22 19 17 14 13 14 13 12 17 20 20 28 22 17 353 353 23 69 128 138 250 328 359 96 56 116 24 67 79 207 250 160 126 136 176 41 30 22 67 30 172 158 67 5 211 270
14 17 15 12 12 12 11 12 9 10 14 14 51 47 359 350 10 50 95 172 174 288 358 51 134 105 115 150 134 153 178 324 169 163 76 120 110 295 41 200 182 136 228 88 133 163 202
7 7 6 8 8 8 9 9 9 6 8 21 79 44 352 359 46 37 65 4 319 17 13 44 77 66 103 75 89 157 208 224 278 160 163 174 142 211 210 291 204 198 209 160 134 224 229
353 2 0 2 4 5 6 8 10 7 2 346 85 261 360 26 65 13 336 62 66 30 24 14 72 48 125 153 166 170 187 163 185 147 164 185 358 5 341 356 348 231 206 170 118 83 207
335 347 352 355 359 3 3 8 10 9 8 8 71 35 341 42 120 108 33 9 52 38 53 26 26 33 46 32 22 219 232 316 38 90 99 85 164 195 198 210 134 218 208 192 164 150 200
321 330 339 346 353 357 7 7 10 9 6 10 29 2 198 360 358 62 64 77 14 342 6 42 39 184 157 211 331 260 205 2 23 85 96 121 241 177 266 249 251 243 222 196 206 206 201
352 335 329 336 346 352 5 7 10 11 11 58 69 77 22 147 218 85 6 20 174 255 169 286 253 235 186 194 194 215 167 190 208 110 168 135 257 144 284 326 227 264 249 234 235 235 256
336 342 342 328 335 347 353 6 14 17 34 51 22 9 62 331 354 106 179 149 330 350 258 239 196 163 240 244 214 244 215 173 179 164 185 164 159 58 272 348 320 293 249 206 190 204 210
314 325 331 334 324 333 345 355 13 21 29 70 52 62 32 310 6 285 260 203 167 160 212 305 314 207 344 351 319 51 238 241 202 224 169 150 140 148 264 345 241 240 221 179 201 229 216
289 302 316 322 324 315 329 343 2 16 20 39 49 87 103 299 301 334 319 301 318 296 185 177 170 179 271 15 355 334 312 303 230 195 202 171 143 220 244 227 299 295 149 132 168 288 219
283 285 297 305 307 311 306 319 343 7 9 10 31 45 108 106 262 229 201 315 294 310 325 288 334 220 83 125 127 205 260 278 290 20 19 97 39 172 148 213 238 265 36 359 147 284 349
280 281 277 285 293 295 300 299 317 345 337 348 325 13 95 137 248 188 234 208 151 155 243 308 324 334 359 120 177 195 231 183 212 188 170 150 192 220 230 266 284 265 292 312 117 269 1
278 280 280 272 277 283 282 284 287 298 308 296 281 272 218 183 273 202 229 188 165 158 173 264 2 346 48 193 192 237 211 253 288 161 181 172 164 193 155 212 269 244 88 189 213 36 350
291 281 281 277 269 267 272 275 276 274 274 273 275 265 237 197 244 248 237 233 237 251 156 224 206 183 213 123 262 334 249 246 203 263 343 239 206 186 192 214 214 223 219 80 138 255 308